Date,TemperatureHighF,TemperatureAvgF,TemperatureLowF,DewpointHighF,DewpointAvgF,DewpointLowF,HumidityHigh,HumidityAvg,HumidityLow,PressureMaxIn,PressureMinIn,WindSpeedMaxMPH,WindSpeedAvgMPH,GustSpeedMaxMPH,PrecipitationSumIn
2013-12-1,39.0,35.5,33.0,0.0,0.0,0.0,0,0,100,0.00,0.00,9,4,13,0.00
2013-12-2,37.0,34.1,30.0,0.0,0.0,0.0,0,0,100,0.00,0.00,8,2,10,0.00
2013-12-3,49.0,39.0,30.0,0.0,0.0,0.0,0,0,100,0.00,0.00,12,7,17,0.00
2013-12-4,56.0,49.8,43.0,0.0,0.0,0.0,0,0,100,0.00,0.00,20,9,29,0.00
2013-12-5,59.6,48.6,30.0,0.0,0.0,0.0,0,0,100,0.00,0.00,20,11,29,0.02
2013-12-6,31.0,28.2,24.0,0.0,0.0,0.0,0,0,100,0.00,0.00,12,4,16,0.04
2013-12-7,24.3,20.9,16.3,0.0,0.0,0.0,0,0,100,0.00,0.00,16,7,20,0.00
2013-12-8,26.3,22.0,16.0,0.0,0.0,0.0,0,0,100,0.00,0.00,18,7,28,0.00
2013-12-9,31.7,28.1,22.0,0.0,0.0,0.0,0,0,100,0.00,0.00,22,11,31,0.00
2013-12-10,24.0,20.1,17.0,0.0,0.0,0.0,0,0,100,0.00,0.00,23,12,35,0.00
2013-12-11,23.6,18.1,14.2,0.0,0.0,0.0,0,0,100,0.00,0.00,17,10,27,0.00
2013-12-12,17.0,12.8,5.0,0.0,0.0,0.0,0,0,100,0.00,0.00,18,11,27,0.00
2013-12-13,28.0,21.7,15.0,0.0,0.0,0.0,0,0,100,0.00,0.00,16,7,24,0.00
2013-12-14,32.0,27.1,22.0,0.0,0.0,0.0,0,0,100,0.00,0.00,16,7,25,0.00
2013-12-15,30.0,19.7,11.0,0.0,0.0,0.0,0,0,100,0.00,0.00,16,3,24,0.00
2013-12-16,21.0,14.9,8.6,0.0,0.0,0.0,0,0,100,0.00,0.00,12,5,16,0.00
2013-12-17,25.3,22.9,18.0,0.0,0.0,0.0,0,0,100,0.00,0.00,15,8,24,0.00
2013-12-18,28.0,23.9,22.0,0.0,0.0,0.0,0,0,100,0.00,0.00,18,11,32,0.00
2013-12-19,43.0,37.1,28.0,0.0,0.0,0.0,0,0,100,0.00,0.00,21,10,30,1.30
2013-12-20,52.4,45.1,40.0,0.0,0.0,0.0,0,0,100,0.00,0.00,17,11,30,0.31
2013-12-21,54.0,45.8,36.0,0.0,0.0,0.0,0,0,100,0.00,0.00,18,7,33,1.43
2013-12-22,59.0,48.5,35.0,0.0,0.0,0.0,0,0,100,0.00,0.00,29,13,45,0.37
2013-12-23,37.0,30.7,25.0,0.0,0.0,0.0,0,0,100,0.00,0.00,17,10,25,0.00
2013-12-24,25.0,16.8,12.6,0.0,0.0,0.0,0,0,100,0.00,0.00,17,10,25,0.00
2013-12-25,25.0,18.7,11.0,0.0,0.0,0.0,0,0,100,0.00,0.00,18,8,25,0.00
2013-12-26,28.0,25.5,20.7,0.0,0.0,0.0,0,0,100,0.00,0.00,21,10,31,0.00
2013-12-27,39.0,33.1,25.0,0.0,0.0,0.0,0,0,100,0.00,0.00,15,9,25,0.02
2013-12-28,50.4,41.1,35.0,0.0,0.0,0.0,0,0,100,0.00,0.00,16,11,24,0.00
2013-12-29,41.4,37.4,24.9,0.0,0.0,0.0,0,0,100,0.00,0.00,17,9,26,0.11
2013-12-30,25.0,19.2,16.0,0.0,0.0,0.0,0,0,100,0.00,0.00,12,1,16,0.02
2013-12-31,20.0,16.8,14.0,0.0,0.0,0.0,0,0,100,0.00,0.00,23,8,30,0.00